[Date Prev][Date Next][Thread Prev][Thread Next] - [Date Index][Thread Index][Author Index]
2 Line ISS Keps 8-16
- Subject: [sarex] 2 Line ISS Keps 8-16
- From: "Dave Larsen PhD" <doc@xxxxxxxxxxx>
- Date: Mon, 16 Aug 2004 04:34:40 -0700
ISS
1 25544U 98067A 04229.23839543 .00019757 00000-0 15906-3 0 4532
2 25544 51.6323 19.1941 0005251 117.9988 304.8582 15.70921896327755
----
Via the sarex mailing list at AMSAT.ORG courtesy of AMSAT-NA.
To unsubscribe, send "unsubscribe sarex" to Majordomo@amsat.org
AMSAT Home